Location: Wien
(48.2082°N, 16.3738°E)
Time: 14:52:29
(UTC+01:00)

TIGRISAT - Visible Passes

Search period start: 21 March 2019 00:00
Search period end: 31 March 2019 00:00
Orbit: 605 x 690 km, 97.8° (Epoch: 21 March)

Date Brightness Start Highest point End Pass type
(mag) Time Alt. Az. Time Alt. Az. Time Alt. Az.
21 Mar ? 20:15:19 10° NE 20:15:31 11° NE 20:15:31 11° NE visible
21 Mar ? 21:51:30 10° N 21:53:17 22° N 21:53:17 22° N visible
22 Mar ? 20:40:36 10° NNE 20:41:47 17° NE 20:41:47 17° NE visible
22 Mar ? 22:17:37 10° N 22:19:32 20° NNW 22:19:32 20° NNW visible
23 Mar ? 21:06:11 10° NNE 21:08:02 24° NNE 21:08:02 24° NNE visible
23 Mar ? 22:44:04 10° NNW 22:45:47 15° NW 22:45:47 15° NW visible
24 Mar ? 21:31:58 10° N 21:34:17 30° N 21:34:17 30° N visible
24 Mar ? 23:11:48 10° NW 23:12:02 10° NW 23:12:02 10° NW visible
25 Mar ? 20:21:31 10° NE 20:22:47 16° NE 20:22:47 16° NE visible
25 Mar ? 21:57:56 10° N 22:00:32 29° NNW 22:00:32 29° NNW visible
26 Mar ? 20:46:54 10° NNE 20:49:02 25° NE 20:49:02 25° NE visible
26 Mar ? 22:24:07 10° N 22:26:47 22° NW 22:26:47 22° NW visible
27 Mar ? 21:12:33 10° NNE 21:15:17 36° NNE 21:15:17 36° NNE visible
27 Mar ? 22:50:41 10° NNW 22:53:02 15° NW 22:53:02 15° NW visible
28 Mar ? 20:02:41 10° NE 20:03:47 14° ENE 20:03:47 14° ENE visible
28 Mar ? 21:38:22 10° N 21:41:32 41° NNW 21:41:32 41° NNW visible
29 Mar ? 20:27:45 10° NNE 20:30:02 23° NE 20:30:02 23° NE visible
29 Mar ? 22:04:23 10° N 22:07:46 32° NW 22:07:46 32° NW visible
30 Mar ? 20:53:13 10° NNE 20:56:16 37° NE 20:56:16 37° NE visible
30 Mar ? 22:30:39 10° NNW 22:34:01 21° WNW 22:34:01 21° WNW visible
